User: anonymous   Login
Location: Byszew
(52.1813°N, 19.2693°E)
Time: 00:28:02
(UTC+00:00)
Language:

Cosmos 2322 - Orbit

View from above orbital plane
View from above orbital plane
View from above satellite
View from above satellite

Ground track
Ground track

The orbit data is extracted from the following two-line orbital elements,

1 23704U 95058A   21138.82525293 -.00000263  00000-0 -11466-3 0  9998
2 23704  70.9855 282.9805 0006826  85.6172 274.5730 14.13434732318122
Epoch (UTC): 18 May 2021 19:48:21
Eccentricity: 0.0006826
inclination: 70.9855°
perigee height: 843 km
apogee height: 852 km
right ascension of ascending node: 282.9805°
argument of perigee: 85.6172°
revolutions per day: 14.13434732
mean anomaly at epoch: 274.5730°
orbit number at epoch: 31812

The dashed part of the orbit path shows where the satellite is in the earth's shadow,  

DLR